Tracking 35275 objects as of 8-Sep-2026
HD Live streaming from Space Station
objects crossing your sky now

SL-12 R/B(1)


SL-12 R/B(1) is no longer on orbit


NORAD ID: 15700
Int'l Code: 1985-037D
Launch date: May 17, 1985
Source: Commonwealth of Independent States (former USSR) (CIS)
Launch site: TYURATAM MISSILE AND SPACE COMPLEX (TTMTR)
Decay date: 1985-05-20

Note: This is a ROCKET BODY
Your satellite tracking list
Your tracking list is empty




NASA's NSSDC Master Catalog

Two Line Element Set (TLE):
1 15700U 85037  D 85139.94439942  .10834419 +60826-4 +20349-3 0  9993
2 15700 051.6120 210.9303 0004830 260.7172 099.4113 16.47209642000332
Source of the keplerian elements: AFSPC